Location: Casone le Fosse
(44.6547°N, 12.1103°E)
Time: 12:12:41
(UTC+00:00)

NOSS 3-4 (A) - Pass Details

Date: 29 October 2020
Orbit: 885 x 1327 km, 63.4° (Epoch: 06 November)

Event Time Altitude Azimuth Distance (km) Brightness Sun altitude
Rises 17:53:56 0° 323° (NW) 3,788 7.1 -20.0°
Reaches altitude 10° 17:56:33 10° 329° (NNW) 2,894 6.4 -20.5°
Maximum altitude 18:03:17 51° 45° (NE) 1,421 4.0 -21.7°
Enters shadow 18:05:39 38° 92° (E) 1,714 4.2 -22.1°
